Overview Statistics Trail Chart Weather Telemetry Raw packets
 

This is the latest recevied weather packets stored in our database for station/object KG5APU. If no packets are shown the sender has not sent any weather packets the latest 10 day(s).

<< 47 48 49 50 51 52 53 >>
Time Temp. Humidity Pressure Rain* Wind** Luminosity Snow
1787909412 24.44° C 81% 1017.2 hPa 0 mm - 0 W/m² -
1787908808 25° C 80% 1017.1 hPa 0 mm - 0 W/m² -
1787908201 25° C 79% 1017.1 hPa 0 mm - 0 W/m² -
1787907597 25° C 79% 1017.3 hPa 0 mm - 0 W/m² -
1787906993 25° C 79% 1017.4 hPa 0 mm - 0 W/m² -
1787906390 25° C 79% 1016.9 hPa 0 mm - 0 W/m² -
1787905785 25.56° C 78% 1017.3 hPa 0 mm - 0 W/m² -
1787905187 25.56° C 76% 1017.2 hPa 0 mm - 0 W/m² -
1787904580 26.11° C 75% 1017.1 hPa 0 mm - 0 W/m² -
1787903979 26.67° C 74% 1017.1 hPa 0 mm - 0 W/m² -
1787903377 26.11° C 74% 1017.2 hPa 0 mm - 0 W/m² -
1787902775 26.11° C 73% 1017 hPa 0 mm - 0 W/m² -
1787902172 26.67° C 73% 1017.1 hPa 0 mm - 0 W/m² -
1787901567 26.67° C 72% 1017.2 hPa 0 mm - 0 W/m² -
1787900964 26.67° C 71% 1017.5 hPa 0 mm - 0 W/m² -
1787900359 26.67° C 69% 1017.2 hPa 0 mm - 0 W/m² -
1787899755 26.67° C 69% 1017.3 hPa 0 mm - 0 W/m² -
1787899151 26.67° C 69% 1017.3 hPa 0 mm - 0 W/m² -
1787898547 27.22° C 68% 1017.2 hPa 0 mm - 0 W/m² -
1787897946 26.67° C 69% 1017.2 hPa 0 mm - 0 W/m² -
1787897346 26.11° C 70% 1017.1 hPa 0 mm - 0 W/m² -
1787896746 26.11° C 69% 1017.3 hPa 0 mm - 0 W/m² -
1787896143 26.67° C 68% 1017.2 hPa 0 mm - 0 W/m² -
1787895539 26.67° C 67% 1017 hPa 0 mm - 0 W/m² -
1787894936 26.67° C 68% 1017.1 hPa 0 mm - 0 W/m² -

* Rain latest hour (hover to see other rain measurements)
** Current wind speed in m/s (hover to see current wind gust speed)